Regional Weather Roundup
Issued by NWS State College, PA

Home | Current Version | Previous Version | Graphics & Text | Print | Product List | Glossary Off
Versions: 1 2 3 4 5 6 7 8 9 10 11 12 13 14 15 16 17 18 19 20 21 22 23 24 25 26 27 28 29 30 31 32 33 34 35 36 37 38 39 40 41 42 43 44 45 46 47 48 49 50

000
ASUS41 KCTP 200110
RWRCTP

REGIONAL WEATHER ROUNDUP
NATIONAL WEATHER SERVICE STATE COLLEGE PA
800 PM EST SUN FEB 19 2017

Note: "fair" indicates few or no clouds below 12,000 feet with no
significant weather and/or obstructions to visibility.

* = STATION THAT DOES NOT REPORT PRECIPITATION /E.G. RAIN...SNOW...ETC/
    THUNDER OR FOG.

PAZ002>004-007>009-013>016-020>023-029>032-200200-
WESTERN PENNSYLVANIA

CITY           SKY/WX    TMP DP  RH WIND       PRES   REMARKS
ERIE           PTCLDY    44  34  67 W5        30.11R
MEADVILLE      CLEAR     46  31  55 N3        30.08R
FRANKLIN*      CLEAR     46  28  49 NW6       30.10R
NEW CASTLE     FAIR      50  29  44 CALM      30.10R
BEAVER COUNTY  NOT AVBL
BUTLER*        CLEAR     54  28  37 CALM      30.09R
PITTSBURGH INT PTCLDY    53  32  44 W7        30.08R
PITTSBURGH     CLEAR     54  38  54 W9        30.07R
INDIANA*       PTCLDY    54  34  47 NW6       30.09R
LATROBE        CLEAR     50  45  81 SW12      30.09R
WASHINGTON CO* CLEAR     52  43  71 SW9       30.12R
$$

PAZ004>006-010>012-017>019-024>028-033>037-041-042-045-046-049>053-200200-
CENTRAL PENNSYLVANIA

CITY           SKY/WX    TMP DP  RH WIND       PRES   REMARKS
BRADFORD       CLEAR     43  30  60 NW5       30.05R
DUBOIS         CLEAR     51  27  39 W8        30.05R
CLEARFIELD       N/A    N/A N/A N/A MISG      30.04R
JOHNSTOWN      CLEAR     49  43  80 W14       30.05R
ALTOONA        CLEAR     52  42  69 SW8       30.04R
STATE COLLEGE  CLEAR     57  30  35 NW10G20   30.01R
WILLIAMSPORT   CLEAR     58  24  27 NW9       29.97R
SELINSGROVE    CLEAR     45  37  73 NW3       29.97R
FT INDIANTOWN  CLEAR     60  33  35 SW5       29.95R
CAPITAL CITY   CLEAR     61  32  33 W9        29.97R
HARRISBURG     PTCLDY    53  35  50 NW6       29.96R
YORK           CLEAR     54  34  46 SW3       29.97R
$$

PAZ038>040-043-044-047-048-054-055-060>062-067>071-200200-
EASTERN PENNSYLVANIA

CITY           SKY/WX    TMP DP  RH WIND       PRES   REMARKS
SCRANTON       CLEAR     55  29  36 NW9       29.95R
MOUNT POCONO   CLEAR     48  28  46 NW8       29.92R
ALLENTOWN      CLEAR     51  34  52 N3        29.92R
QUAKERTOWN*    CLEAR     46  36  66 CALM      29.93R
READING        CLEAR     57  36  45 W9        29.93R
LANCASTER      CLEAR     53  34  48 W7        29.95R
COATESVILLE    CLEAR     57  34  41 W6        29.96R
POTTSTOWN      CLEAR     47  35  63 CALM      29.94R
BLUE BELL      CLEAR     50  36  57 CALM      29.92R
DOYLESTOWN     CLEAR     55  32  41 CALM      29.91R
WILLOW GROVE   NOT AVBL
NORTH PHILA    CLEAR     57  35  43 W5        29.93R
PHILADELPHIA   CLEAR     58  34  40 W6        29.94R
$$



USA.gov is the U.S. government's official web portal to all federal, state and local government web resources and services.